Regional Weather Roundup
Issued by NWS Cleveland, OH

Home | Current Version | Previous Version | Graphics & Text | Print | Product List | Glossary On
Versions: 1 2 3 4 5 6 7 8 9 10 11 12 13 14 15 16 17 18 19 20 21 22 23 24 25 26 27 28 29 30 31 32 33 34 35 36 37 38 39 40 41 42 43 44 45 46 47 48 49 50
000
ASUS41 KCLE 291012
RWRCLE
OHIO REGIONAL WEATHER ROUNDUP
NATIONAL WEATHER SERVICE WILMINGTON, OH
600 AM EDT FRI JUL 29 2016

NOTE: "FAIR" INDICATES FEW OR NO CLOUDS BELOW 12,000 FEET WITH NO
SIGNIFICANT WEATHER AND/OR OBSTRUCTIONS TO VISIBILITY.

OHZ001>008-015>018-024>027-034-035-043-044-291100-
   NORTHWEST OHIO

CITY           SKY/WX    TMP DP  RH WIND       PRES   REMARKS
DEFIANCE       FAIR      71  62  73 NE5       29.92R
FINDLAY        FAIR      68  63  84 CALM      29.91R
TOLEDO EXPRESS FAIR      69  60  73 N5        29.92R
TOLEDO EXEC    FAIR      72  67  84 NE3       29.92S
LIMA           FAIR      66  64  93 SE6       29.92S
$$

OHZ009>014-019>023-028>033-038-089-291100-
   NORTHEAST OHIO

CITY           SKY/WX    TMP DP  RH WIND       PRES   REMARKS
CLE-HOPKINS    FAIR      68  63  84 CALM      29.94R
CLE-LAKEFRONT  MOCLDY    72  67  84 S6        29.91R
CUY CO. ARPT   NOT AVBL
LORAIN-ELYRIA  FAIR      62  60  93 CALM      29.93R
ASHTABULA      FAIR      63  63 100 CALM      29.94R FOG
AKRON-CANTON   CLOUDY    69  67  93 S5        29.94R FOG
WOOSTER        FOG       65  65 100 CALM      29.95R VSB 1/4
MANSFIELD      FAIR      63  63 100 CALM      29.95R
YOUNGSTOWN     FOG       66  65  96 SE3       29.94R VSB 1/4
$$

OHZ042-051>053-060>062-070>072-077>081-291100-
  SOUTHWEST OHIO

CITY           SKY/WX    TMP DP  RH WIND       PRES   REMARKS
CINC-COVINGTON FOG       71  71 100 S3        29.93R VSB 1/8
CINC-LUNKEN    CLOUDY    74  74 100 CALM      29.92R
HAMILTON       FAIR      67  65  93 CALM      29.93R FOG
DAYTON         FAIR      69  67  93 SW3       29.93S
WRIGHT-PAT AFB FAIR      69  69 100 SE2       29.91S
DAYTON GENERAL FAIR      69  67  93 CALM      29.92R
WILMINGTON     FOG       71  71 100 SW3       29.93R VSB 1/4
$$

OHZ036-037-039>041-045>050-054>059-063>069-073>076-082>088-291100-
  CENTRAL AND SOUTHEAST OHIO

CITY           SKY/WX    TMP DP  RH WIND       PRES   REMARKS
COLUMBUS       FAIR      68  67  96 SE3       29.92S FOG
OSU AIRPORT    FOG       67  67 100 SE3       29.93R VSB 1/4
BOLTON FIELD   CLOUDY    65  65 100 CALM      29.94R VSB 1/4
RICKENBACK AFB FAIR      65  66 100 CALM      29.92R FOG
NEWARK         CLOUDY    70  69  97 CALM      29.93R FOG
MARION         FOG       64  63  96 SE3       29.94R VSB 1/4
LANCASTER      FAIR      65  65 100 CALM      29.93S
ZANESVILLE     CLOUDY    74  70  87 SW3       29.93S FOG
NEW PHILLY     CLOUDY    73  69  87 CALM      29.94R FOG
$$




USA.gov is the U.S. government's official web portal to all federal, state and local government web resources and services.